Weather History for KSUU - April, 2013

Change the Weather History Date:

Wednesday, April 10, 2013

  Actual Average Record
Temperature  
Mean Temperature 67 °F -  
Max Temperature 84 °F 65 °F 86 °F (2004)
Min Temperature 50 °F 43 °F 33 °F (2007)
Cooling Degree Days 2    
Growing Degree Days 17 (Base 50)    
Moisture  
Dew Point 49 °F    
Average Humidity 49    
Maximum Humidity 71    
Minimum Humidity 32    
Precipitation  
Precipitation 0.00 in - - ()
Sea Level Pressure  
Sea Level Pressure 30.07 in    
Wind  
Wind Speed 9 mph (West)    
Max Wind Speed 25 mph    
Max Gust Speed -    
Visibility 10 miles    
Events      
Averages and records for this station are not official NWS values.
T = Trace of Precipitation, MM = Missing Value Source: NWS Daily Summary

Daily Weather History Graph

Daily Weather History Graph

Search for Another Location

Airport or City:

Trip Planner

Search our weather history database for the weather conditions in past years. The results will help you decide how hot, cold, wet, or windy it might be!

Date:

Astronomy

Apr. 10, 2013 Rise Set
Actual Time 6:38 AM PDT 7:39 PM PDT
Civil Twilight 6:11 AM PDT 8:06 PM PDT
Nautical Twilight 5:39 AM PDT 8:39 PM PDT
Astronomical Twilight 5:06 AM PDT 9:12 PM PDT
Moon 6:38 AM PDT (4/10) 8:19 PM PDT (4/10)
Length of Visible Light 13h 55m
Length of Day
13h 00m
New Moon, 0% of the Moon is Illuminated
Apr 10
New Moon
Apr 18
First Quarter
Apr 25
Full
May 2
Last Quarter
May 9
New

Hourly Weather History & Observations

Time (PDT) Temp. Heat Index Dew Point Humidity Pressure Visibility Wind Dir Wind Speed Gust Speed Precip Events Conditions
12:58 AM 56.3 °F - 39.9 °F 54% 30.10 in 10.0 mi NNW 5.8 mph - N/A   Clear
1:58 AM 50.5 °F - 41.2 °F 70% 30.09 in 10.0 mi NW 5.8 mph - N/A   Clear
2:58 AM 54.5 °F - 40.5 °F 59% 30.09 in 10.0 mi NW 3.5 mph - N/A   Clear
3:58 AM 58.5 °F - 40.3 °F 51% 30.09 in 10.0 mi NNW 5.8 mph - N/A   Clear
4:58 AM 61.9 °F - 40.6 °F 46% 30.10 in 10.0 mi NNW 9.2 mph - N/A   Clear
5:58 AM 64.4 °F - 40.8 °F 42% 30.11 in 10.0 mi NNW 11.5 mph - N/A   Clear
6:58 AM 63.9 °F - 41.7 °F 44% 30.13 in 10.0 mi NNW 8.1 mph - N/A   Clear
7:58 AM 61.7 °F - 46.4 °F 57% 30.17 in 10.0 mi Variable 3.5 mph - N/A   Clear
8:58 AM 64.6 °F - 47.7 °F 54% 30.18 in 10.0 mi SE 8.1 mph - N/A   Clear
9:58 AM 67.8 °F - 51.3 °F 55% 30.18 in 10.0 mi ESE 4.6 mph - N/A   Clear
10:58 AM 75.7 °F - 48.7 °F 38% 30.17 in 10.0 mi SE 4.6 mph - N/A   Clear
11:58 AM 78.6 °F - 50.4 °F 37% 30.15 in 10.0 mi NNE 6.9 mph - N/A   Clear
12:58 PM 81.5 °F - 49.5 °F 33% 30.13 in 10.0 mi NE 6.9 mph - N/A   Clear
1:58 PM 82.4 °F - 49.5 °F 32% 30.10 in 10.0 mi Calm Calm - N/A   Clear
2:58 PM 83.8 °F 82.4 °F 53.8 °F 35% 30.07 in 10.0 mi SW 5.8 mph - N/A   Clear
3:58 PM 84.4 °F 83.1 °F 54.5 °F 36% 30.04 in 10.0 mi WSW 18.4 mph - N/A   Clear
4:58 PM 83.1 °F 82.1 °F 54.0 °F 37% 30.01 in 10.0 mi WSW 20.7 mph - N/A   Clear
5:58 PM 78.3 °F - 58.1 °F 50% 29.99 in 10.0 mi SW 13.8 mph - N/A   Clear
6:58 PM 78.1 °F - 56.1 °F 47% 29.98 in 10.0 mi WSW 16.1 mph - N/A   Clear
7:58 PM 69.4 °F - 54.7 °F 59% 29.98 in 10.0 mi SW 13.8 mph - N/A   Clear
8:58 PM 64.0 °F - 54.5 °F 71% 29.99 in 10.0 mi South 10.4 mph - N/A   Clear
9:58 PM 65.1 °F - 51.8 °F 62% 29.99 in 10.0 mi SW 11.5 mph - N/A   Clear
10:58 PM 69.6 °F - 51.1 °F 52% 29.99 in 10.0 mi WSW 10.4 mph - N/A   Mostly Cloudy
11:23 PM 69.8 °F - 46.4 °F 43% 29.95 in 10.0 mi West 25.3 mph - N/A   Overcast
11:44 PM 71.6 °F - 48.2 °F 43% 29.98 in 10.0 mi WSW 19.6 mph - N/A   Overcast
11:58 PM 68.0 °F - 53.4 °F 60% 30.01 in 10.0 mi WSW 18.4 mph - N/A   Overcast